Location: Newark
(12.0500°N, 61.7500°W)
Time: 18:25:56
(UTC+00:00)

Hubble Space Telescope - Visible Passes

Search period start: 27 January 2020 00:00
Search period end: 06 February 2020 00:00
Orbit: 536 x 540 km, 28.5° (Epoch: 26 January)

Date Brightness Start Highest point End Pass type
(mag) Time Alt. Az. Time Alt. Az. Time Alt. Az.
27 Jan 0.6 09:12:55 45° WSW 09:14:06 87° NNW 09:18:13 10° ENE visible
28 Jan 0.8 09:03:40 62° NNW 09:03:40 62° NNW 09:07:34 10° NE visible
29 Jan 2.0 08:54:17 32° NNE 08:54:17 32° NNE 08:56:52 10° NE visible
30 Jan 2.9 08:44:44 18° NNE 08:44:44 18° NNE 08:46:06 10° NE visible
31 Jan 3.5 08:35:05 11° NE 08:35:05 11° NE 08:35:18 10° NE visible
31 Jan 3.1 10:13:33 10° NNW 10:13:37 10° N 10:13:41 10° N visible
